[[{"header":{"parameterUnit":"m.s-1","parameterCategory":2,"la1":30.2991,"la2":30.254,"lo1":-89.0895,"lo2":-89.0444,"dy":0.0017,"dx":0.0017,"nx":28,"ny":28,"refTime":"2024-07-07T03:00:00:Z","depth":"0","parameterNumber":2,"parameterNumberName":"U-component_of_CURRENTS"},"data":[0,0,0,0,0,0,0,0,0,0,0,0,0,0,0,0,0,0,0,0,0,0,0,0,0,0,0,0,0,0,0,0,0,0,0,0,0,0,0,0,0,0,0,0,0,0,0,0,0,0,0,0,0,0,0,0,0,0,-0.1685,-0.1686,0,-0.1736,-0.1737,-0.1737,-0.1705,-0.1704,-0.1703,-0.1702,-0.1632,-0.1632,-0.1631,0,0,0,0,0,0,0,0,0,0,0,0,0,-0.1595,-0.1596,-0.1685,-0.1686,-0.1687,-0.1736,-0.1737,-0.1737,-0.1705,-0.1704,-0.1702,-0.1701,-0.1633,-0.1632,-0.1631,0,0,0,0,0,0,0,0,0,0,0,0,0,-0.1635,-0.1597,-0.1685,-0.168,-0.168,-0.1736,-0.1737,-0.1737,-0.1706,-0.1704,-0.1702,-0.17,-0.1633,-0.1632,-0.1631,-0.1659,0,0,-0.1627,-0.1627,0,0,0,0,0,0,0,0,-0.1633,-0.1638,-0.168,-0.168,-0.1681,-0.1716,-0.168,-0.1706,-0.1706,-0.1692,-0.1702,-0.17,-0.1653,-0.165,-0.166,-0.1656,-0.1653,-0.1627,-0.1627,-0.1626,-0.1626,0,0,0,0,0,0,0,-0.163,-0.1636,-0.1702,-0.1681,-0.1682,-0.1687,-0.169,-0.1685,-0.1677,-0.1693,-0.1692,-0.1704,-0.1651,-0.1661,-0.1658,-0.1652,-0.1627,-0.1626,-0.1626,-0.1625,-0.1668,-0.1669,0,0,0,0,0,0,-0.1632,-0.1634,-0.17,-0.1704,-0.1656,-0.1691,-0.1694,-0.1703,-0.1679,-0.1676,-0.1706,-0.1702,-0.1664,-0.1659,-0.1655,-0.1681,-0.1626,-0.1625,-0.1624,-0.1666,-0.1668,-0.167,0,0,0,0,0,0,-0.163,-0.1637,-0.1698,-0.1673,-0.1681,-0.1694,-0.1705,-0.1705,-0.1711,-0.1691,-0.1684,-0.1711,-0.1663,-0.1657,-0.1656,-0.1677,-0.1625,-0.1623,-0.1664,-0.1667,-0.1669,-0.1735,0,0,0,0,0,0,-0.1627,-0.1636,-0.1638,-0.1673,-0.1683,-0.1732,-0.1707,-0.1708,-0.1723,-0.172,-0.1693,-0.1685,-0.1661,-0.1658,-0.1655,-0.1675,-0.1623,-0.1661,-0.1665,-0.1668,-0.1731,-0.174,-0.1748,0,0,0,0,0,-0.1623,-0.1638,-0.1638,-0.1646,-0.1687,-0.1734,-0.1739,-0.174,-0.1725,-0.1736,-0.1721,-0.1686,-0.1677,-0.1659,-0.1655,-0.1675,-0.166,-0.1664,-0.1668,-0.1727,-0.1738,-0.1747,0,0,0,0,0,0,-0.1598,-0.1637,-0.1638,-0.1662,-0.1695,-0.173,-0.1743,-0.1747,-0.1747,-0.1737,-0.1707,-0.17,-0.1713,-0.169,-0.167,-0.17,-0.1664,-0.1668,-0.1711,-0.1721,-0.1729,-0.1739,-0.1622,0,0,0,0,0,-0.1596,-0.1612,-0.1656,-0.1673,-0.1694,-0.1719,-0.1736,-0.1744,-0.1755,-0.1753,-0.1734,-0.1722,-0.1732,-0.172,-0.1721,-0.1731,-0.1719,-0.1743,-0.1752,-0.1759,-0.1767,-0.1788,-0.1799,-0.1683,-0.1683,-0.1683,0,0,-0.1589,-0.1614,-0.1621,-0.1668,-0.1692,-0.1732,-0.1724,-0.1759,-0.1782,-0.1745,-0.1755,-0.1754,-0.1745,-0.1764,-0.1766,-0.1739,-0.1785,-0.1764,-0.177,-0.1774,-0.1793,-0.1804,-0.1814,-0.1686,-0.1686,-0.1685,0,0,-0.1592,-0.1611,-0.1628,-0.1664,-0.1711,-0.1739,-0.1752,-0.179,-0.1795,-0.1818,-0.1806,-0.1828,-0.1812,-0.1828,-0.1831,-0.189,-0.1839,-0.1875,-0.1911,-0.1931,-0.1941,-0.1949,-0.1939,-0.1946,-0.1867,-0.1867,-0.1867,0,-0.1582,-0.1613,-0.1642,-0.1677,-0.1711,-0.1744,-0.1783,-0.1807,-0.1834,-0.1847,-0.1824,-0.1859,-0.1855,-0.19,-0.1919,-0.1911,-0.1891,-0.1869,-0.1942,-0.195,-0.1957,-0.1945,-0.1952,-0.187,-0.187,-0.187,-0.1869,0,-0.1601,-0.1633,-0.1653,-0.1707,-0.1746,-0.179,-0.1839,-0.1864,-0.1875,-0.1895,-0.1937,-0.1947,-0.1963,-0.1973,-0.1959,-0.2013,-0.1971,-0.1959,-0.1913,-0.1972,-0.1956,-0.1962,-0.1876,-0.1874,-0.1873,-0.1872,0,0,-0.1574,-0.165,-0.1658,-0.1686,-0.177,-0.1802,-0.186,-0.1922,-0.1943,-0.1976,-0.2005,-0.2056,-0.2055,-0.2062,-0.2058,-0.2077,-0.2116,-0.2029,-0.2028,-0.2014,-0.2125,-0.2123,-0.2128,-0.2098,-0.21,-0.2101,-0.2089,0,-0.1584,-0.1639,-0.1686,-0.1749,-0.1789,-0.185,-0.1894,-0.1949,-0.1982,-0.2012,-0.2058,-0.2077,-0.2089,-0.2084,-0.2121,-0.2111,-0.2134,-0.2118,-0.2075,-0.2074,-0.206,-0.2137,-0.2029,-0.2012,-0.2095,-0.2095,-0.2096,0,-0.1593,-0.1632,-0.1686,-0.1766,-0.1789,-0.1828,-0.1905,-0.1947,-0.2015,-0.2034,-0.2087,-0.2099,-0.2156,-0.2141,-0.219,-0.2165,-0.2159,-0.2154,-0.2153,-0.2134,-0.2084,-0.1969,-0.2018,-0.1744,-0.2104,-0.2104,-0.2103,0,-0.1548,-0.1636,-0.1673,-0.1704,-0.1796,-0.1827,-0.1873,-0.1946,-0.1967,-0.2035,-0.2042,-0.2122,-0.2129,-0.2166,-0.2182,-0.2168,-0.2211,-0.219,-0.2192,-0.2189,-0.2084,-0.2071,-0.1862,-0.2236,-0.2236,-0.2236,-0.2236,0,-0.1546,-0.1577,-0.1648,-0.1668,-0.171,-0.1785,-0.182,-0.1878,-0.1933,-0.1955,-0.2033,-0.2054,-0.213,-0.2164,-0.2185,-0.2212,-0.2221,-0.2219,-0.2203,-0.2104,-0.2093,-0.184,-0.1843,-0.2236,-0.2236,-0.2236,-0.2236,0,-0.1495,-0.1544,-0.1588,-0.1668,-0.1687,-0.1711,-0.177,-0.1786,-0.1849,-0.1877,-0.189,-0.1987,-0.2039,-0.2112,-0.2161,-0.2199,-0.2168,-0.2235,-0.2107,-0.2079,-0.184,-0.1858,-0.1948,-0.1902,-0.2236,-0.2236,-0.2236,0,-0.1481,-0.149,-0.1557,-0.1569,-0.1603,-0.1639,-0.1655,-0.1731,-0.1747,-0.1832,-0.1836,-0.1906,-0.1945,-0.2041,-0.2126,-0.2184,-0.2133,-0.2125,-0.2117,-0.1826,-0.1832,-0.1943,-0.1904,-0.1985,-0.1983,-0.1981,-0.198,0,-0.1444,-0.1454,-0.1482,-0.1501,-0.1519,-0.1537,-0.1568,-0.1566,-0.165,-0.1678,-0.1724,-0.1758,-0.1875,-0.1916,-0.2027,-0.2056,-0.2019,-0.2097,-0.182,-0.1665,-0.1751,-0.1693,-0.1964,-0.1965,-0.1967,-0.1968,-0.1969,-0.1969,-0.1403,-0.1401,-0.1417,-0.1436,-0.1446,-0.1433,-0.1403,-0.1443,-0.1455,-0.1478,-0.1584,-0.16,-0.1697,-0.1844,-0.1783,-0.1643,-0.1928,-0.1604,-0.1661,-0.1802,-0.1742,-0.1991,-0.1969,-0.197,-0.1971,-0.1972,-0.1973,0,-0.1358,-0.1345,-0.135,-0.1355,-0.1324,-0.1354,-0.1338,-0.1291,-0.1272,-0.1328,-0.1362,-0.1425,-0.1372,-0.1346,-0.1297,-0.1173,-0.12,-0.1134,-0.1153,-0.1143,-0.1305,-0.1257,-0.1047,-0.1048,-0.1048,-0.1048,-0.1048,-0.1049,-0.133,-0.1303,-0.1301,-0.1237,-0.1221,-0.1137,-0.1099,-0.1054,-0.1056,-0.1048,-0.1082,-0.1161,-0.1104,-0.0958,-0.064,-0.063,-0.0558,-0.0748,-0.074,-0.0647,-0.0688,-0.0728,-0.0665,-0.0335,-0.0335,-0.0487,-0.0488,-0.0488]},{"header":{"parameterUnit":"m.s-1","parameterCategory":2,"la1":30.2991,"la2":30.254,"lo1":-89.0895,"lo2":-89.0444,"dy":0.0017,"dx":0.0017,"nx":28,"ny":28,"refTime":"2024-07-07T03:00:00:Z","depth":"0","parameterNumber":3,"parameterNumberName":"V-component_of_CURRENTS"},"data":[0,0,0,0,0,0,0,0,0,0,0,0,0,0,0,0,0,0,0,0,0,0,0,0,0,0,0,0,0,0,0,0,0,0,0,0,0,0,0,0,0,0,0,0,0,0,0,0,0,0,0,0,0,0,0,0,0,0,-0.1257,-0.1257,0,-0.1221,-0.1221,-0.122,-0.1168,-0.1167,-0.1166,-0.1165,-0.1041,-0.1039,-0.1036,0,0,0,0,0,0,0,0,0,0,0,0,0,-0.1231,-0.1232,-0.1257,-0.1257,-0.1257,-0.1221,-0.122,-0.122,-0.1168,-0.1167,-0.1166,-0.1165,-0.1042,-0.1039,-0.1036,0,0,0,0,0,0,0,0,0,0,0,0,0,-0.1223,-0.1232,-0.1258,-0.1227,-0.1223,-0.1221,-0.122,-0.122,-0.1168,-0.1167,-0.1165,-0.1164,-0.1043,-0.1039,-0.1036,-0.1039,0,0,-0.1024,-0.1023,0,0,0,0,0,0,0,0,-0.1223,-0.1224,-0.1232,-0.1229,-0.1225,-0.1198,-0.1166,-0.1155,-0.1168,-0.1189,-0.1165,-0.1163,-0.1087,-0.1079,-0.1076,-0.1033,-0.1027,-0.1024,-0.1022,-0.102,-0.1019,0,0,0,0,0,0,0,-0.1224,-0.1225,-0.1243,-0.1231,-0.1227,-0.1197,-0.1195,-0.1163,-0.1143,-0.1187,-0.1183,-0.118,-0.1084,-0.108,-0.1072,-0.1026,-0.1024,-0.1021,-0.1018,-0.1017,-0.096,-0.0961,0,0,0,0,0,0,-0.1234,-0.1226,-0.1244,-0.1241,-0.1222,-0.1199,-0.1196,-0.1208,-0.1145,-0.1136,-0.1181,-0.1178,-0.1087,-0.1077,-0.1068,-0.1056,-0.102,-0.1016,-0.1014,-0.0959,-0.096,-0.0961,0,0,0,0,0,0,-0.1234,-0.1237,-0.1245,-0.1232,-0.1231,-0.1201,-0.1214,-0.1208,-0.1194,-0.1142,-0.113,-0.1173,-0.1085,-0.1073,-0.1042,-0.1051,-0.1015,-0.1011,-0.0958,-0.096,-0.0961,-0.104,0,0,0,0,0,0,-0.1234,-0.1237,-0.1247,-0.1233,-0.1232,-0.1247,-0.1215,-0.1208,-0.1195,-0.119,-0.1132,-0.112,-0.1083,-0.1048,-0.1039,-0.1045,-0.1008,-0.0958,-0.0959,-0.096,-0.1037,-0.1044,-0.105,0,0,0,0,0,-0.1233,-0.1255,-0.1248,-0.1249,-0.1248,-0.1248,-0.1244,-0.1217,-0.1196,-0.1199,-0.116,-0.1121,-0.105,-0.1046,-0.1034,-0.104,-0.0957,-0.0959,-0.096,-0.1034,-0.1042,-0.105,0,0,0,0,0,0,-0.1243,-0.1252,-0.1243,-0.1265,-0.1257,-0.1239,-0.1239,-0.122,-0.1194,-0.1183,-0.113,-0.1116,-0.1094,-0.1058,-0.1056,-0.1029,-0.0997,-0.0996,-0.1057,-0.1065,-0.1071,-0.1077,-0.1005,0,0,0,0,0,-0.1254,-0.1275,-0.1268,-0.1284,-0.1284,-0.1261,-0.1256,-0.1239,-0.1215,-0.1202,-0.1163,-0.1123,-0.1096,-0.1072,-0.1043,-0.1027,-0.1023,-0.1023,-0.103,-0.1036,-0.1033,-0.1037,-0.1045,-0.0966,-0.0966,-0.0966,0,0,-0.1258,-0.1268,-0.1276,-0.1288,-0.1279,-0.1286,-0.1255,-0.1252,-0.1253,-0.1192,-0.1179,-0.1145,-0.1098,-0.1084,-0.107,-0.1051,-0.1065,-0.1038,-0.1043,-0.1037,-0.104,-0.1048,-0.1054,-0.0968,-0.0967,-0.0967,0,0,-0.1279,-0.1291,-0.1311,-0.1312,-0.1309,-0.1303,-0.1303,-0.1286,-0.1274,-0.1262,-0.1222,-0.1197,-0.115,-0.1124,-0.1104,-0.1129,-0.1104,-0.1115,-0.1147,-0.1152,-0.1159,-0.1164,-0.1212,-0.1221,-0.1114,-0.1114,-0.1114,0,-0.1279,-0.1309,-0.1313,-0.1329,-0.1333,-0.1313,-0.1325,-0.1319,-0.1293,-0.1289,-0.1265,-0.122,-0.1172,-0.1165,-0.1163,-0.1144,-0.1154,-0.1122,-0.1162,-0.1167,-0.1171,-0.1218,-0.1227,-0.1118,-0.1118,-0.1117,-0.1117,0,-0.1312,-0.133,-0.1343,-0.1363,-0.137,-0.1378,-0.1374,-0.1375,-0.1359,-0.1347,-0.1339,-0.1293,-0.1263,-0.1247,-0.1203,-0.1211,-0.1214,-0.1177,-0.1145,-0.1184,-0.1231,-0.1239,-0.1124,-0.1122,-0.1121,-0.112,0,0,-0.1318,-0.1358,-0.136,-0.1371,-0.1387,-0.1395,-0.1413,-0.1422,-0.1435,-0.1413,-0.1431,-0.1377,-0.1353,-0.1328,-0.1286,-0.1275,-0.1316,-0.1232,-0.1231,-0.1287,-0.1363,-0.1331,-0.1337,-0.1283,-0.1284,-0.1284,-0.1399,0,-0.1334,-0.1372,-0.1394,-0.1421,-0.1433,-0.144,-0.1461,-0.1468,-0.147,-0.1486,-0.1456,-0.1451,-0.1387,-0.1375,-0.1358,-0.1317,-0.1333,-0.129,-0.1308,-0.131,-0.1281,-0.1342,-0.1263,-0.1353,-0.1407,-0.1408,-0.1409,0,-0.135,-0.1376,-0.1409,-0.1447,-0.1455,-0.1474,-0.151,-0.1528,-0.1551,-0.1554,-0.1556,-0.1536,-0.1522,-0.1462,-0.1446,-0.1422,-0.1397,-0.1374,-0.1378,-0.1318,-0.129,-0.1312,-0.1365,-0.1008,-0.1421,-0.142,-0.1419,0,-0.1337,-0.1382,-0.1412,-0.1423,-0.1467,-0.1487,-0.1511,-0.1541,-0.1565,-0.16,-0.1626,-0.1617,-0.1616,-0.1583,-0.153,-0.1487,-0.1532,-0.1471,-0.1442,-0.1442,-0.1361,-0.1351,-0.1069,-0.1479,-0.1479,-0.1478,-0.1478,0,-0.1341,-0.1356,-0.1408,-0.1421,-0.1455,-0.1488,-0.1532,-0.1556,-0.1608,-0.165,-0.1655,-0.169,-0.1636,-0.1651,-0.1593,-0.156,-0.1592,-0.1467,-0.1464,-0.139,-0.1382,-0.1054,-0.0878,-0.1483,-0.1482,-0.1481,-0.148,0,-0.1307,-0.1344,-0.1374,-0.143,-0.1447,-0.1467,-0.1535,-0.1573,-0.1626,-0.1689,-0.1705,-0.1751,-0.1779,-0.1761,-0.1731,-0.1643,-0.1451,-0.16,-0.1541,-0.1526,-0.1114,-0.0949,-0.0845,-0.072,-0.1573,-0.1573,-0.1572,0,-0.1285,-0.1301,-0.1367,-0.1388,-0.1411,-0.1454,-0.149,-0.156,-0.1613,-0.1722,-0.1759,-0.1824,-0.1874,-0.1864,-0.1774,-0.1738,-0.1473,-0.1562,-0.1436,-0.1085,-0.09,-0.0876,-0.0776,-0.1391,-0.1389,-0.1388,-0.1387,0,-0.1235,-0.1268,-0.13,-0.135,-0.1391,-0.1446,-0.151,-0.1559,-0.1659,-0.1738,-0.1846,-0.1903,-0.1932,-0.1897,-0.1836,-0.1715,-0.1285,-0.153,-0.1165,-0.0729,-0.0688,-0.0569,-0.1348,-0.1375,-0.1376,-0.1377,-0.1378,-0.1378,-0.1184,-0.1203,-0.1257,-0.1302,-0.1356,-0.1432,-0.1469,-0.1579,-0.168,-0.1824,-0.1887,-0.2022,-0.1941,-0.1871,-0.1653,-0.113,-0.1235,-0.0901,-0.0744,-0.0767,-0.0571,-0.1341,-0.1347,-0.1348,-0.1349,-0.1349,-0.135,0,-0.1117,-0.1159,-0.1203,-0.1271,-0.1324,-0.1372,-0.1476,-0.154,-0.1666,-0.1859,-0.1976,-0.2056,-0.1786,-0.1493,-0.0913,-0.0421,-0.0309,-0.0114,0.0023,0.0077,-0.0585,-0.0486,-0.0303,-0.0303,-0.0304,-0.0304,-0.0305,-0.0305,-0.1081,-0.1112,-0.1155,-0.1217,-0.127,-0.1347,-0.14,-0.1522,-0.1671,-0.1896,-0.2061,-0.2169,-0.1637,-0.0583,0.033,0.0499,0.0858,0.0812,0.0966,0.0675,0.0617,0.0561,0.0703,0.1131,0.1133,0.1563,0.1569,0.1574]}],[{"header":{"parameterUnit":"m.s-1","parameterCategory":2,"la1":30.2991,"la2":30.254,"lo1":-89.0895,"lo2":-89.0444,"dy":0.0017,"dx":0.0017,"nx":28,"ny":28,"refTime":"2024-07-07T03:00:00:Z","depth":"2","parameterNumber":2,"parameterNumberName":"U-component_of_CURRENTS"},"data":[0,0,0,0,0,0,0,0,0,0,0,0,0,0,0,0,0,0,0,0,0,0,0,0,0,0,0,0,0,0,0,0,0,0,0,0,0,0,0,0,0,0,0,0,0,0,0,0,0,0,0,0,0,0,0,0,0,0,-0.2044,-0.2046,0,-0.2312,-0.2315,-0.2319,-0.2437,-0.2436,-0.2436,-0.2435,-0.2404,-0.2404,-0.2403,0,0,0,0,0,0,0,0,0,0,0,0,0,-0.1838,-0.184,-0.2043,-0.2046,-0.2049,-0.2311,-0.2316,-0.232,-0.2437,-0.2436,-0.2436,-0.2435,-0.2404,-0.2404,-0.2403,0,0,0,0,0,0,0,0,0,0,0,0,0,-0.2002,-0.1841,-0.2043,-0.2137,-0.2147,-0.2311,-0.2316,-0.2321,-0.2438,-0.2436,-0.2435,-0.2434,-0.2404,-0.2404,-0.2403,-0.2425,0,0,-0.2403,-0.2403,0,0,0,0,0,0,0,0,-0.1993,-0.201,-0.212,-0.213,-0.2143,-0.2336,-0.2232,-0.2339,-0.2438,-0.2332,-0.2435,-0.2434,-0.2351,-0.2355,-0.2419,-0.2424,-0.2422,-0.2403,-0.2403,-0.2403,-0.2403,0,0,0,0,0,0,0,-0.1981,-0.2001,-0.2154,-0.2123,-0.2137,-0.2235,-0.2256,-0.2256,-0.2342,-0.2341,-0.2349,-0.2373,-0.2356,-0.2419,-0.2418,-0.2422,-0.2403,-0.2403,-0.2403,-0.2402,-0.2355,-0.2354,0,0,0,0,0,0,-0.193,-0.1989,-0.2146,-0.2162,-0.2059,-0.2239,-0.2262,-0.2279,-0.2349,-0.236,-0.2373,-0.2377,-0.242,-0.2418,-0.2417,-0.2392,-0.2403,-0.2402,-0.2402,-0.2357,-0.2355,-0.2354,0,0,0,0,0,0,-0.1925,-0.1941,-0.2135,-0.2079,-0.2109,-0.2241,-0.2261,-0.2285,-0.2361,-0.2376,-0.2382,-0.2425,-0.2419,-0.2417,-0.2408,-0.2393,-0.2402,-0.2402,-0.2358,-0.2356,-0.2355,-0.2375,0,0,0,0,0,0,-0.1917,-0.1938,-0.1959,-0.2074,-0.211,-0.2202,-0.2262,-0.229,-0.2374,-0.2382,-0.2422,-0.2419,-0.2418,-0.2408,-0.2407,-0.2393,-0.2402,-0.2359,-0.2357,-0.2355,-0.2376,-0.2375,-0.2373,0,0,0,0,0,-0.1909,-0.1955,-0.1959,-0.1979,-0.2126,-0.2201,-0.2229,-0.2324,-0.2377,-0.2394,-0.2425,-0.2418,-0.2393,-0.2408,-0.2407,-0.2392,-0.236,-0.2358,-0.2355,-0.2377,-0.2375,-0.2373,0,0,0,0,0,0,-0.192,-0.1974,-0.198,-0.205,-0.2094,-0.2219,-0.2293,-0.2334,-0.2391,-0.2406,-0.2421,-0.2418,-0.239,-0.2391,-0.2407,-0.2367,-0.2368,-0.2365,-0.2384,-0.2383,-0.2381,-0.2315,-0.2402,0,0,0,0,0,-0.1915,-0.1944,-0.1996,-0.2055,-0.2087,-0.2187,-0.2247,-0.2281,-0.234,-0.2373,-0.2402,-0.2409,-0.2384,-0.2384,-0.2363,-0.2365,-0.2345,-0.2346,-0.2344,-0.2344,-0.2286,-0.2259,-0.225,-0.2346,-0.2346,-0.2346,0,0,-0.1949,-0.1977,-0.2004,-0.2055,-0.2133,-0.2161,-0.2224,-0.2301,-0.231,-0.2349,-0.2404,-0.24,-0.2377,-0.2363,-0.2352,-0.2365,-0.2317,-0.234,-0.234,-0.2281,-0.2255,-0.2246,-0.2238,-0.2344,-0.2344,-0.2344,0,0,-0.1996,-0.2045,-0.2062,-0.2081,-0.2137,-0.2184,-0.2193,-0.2289,-0.2322,-0.2348,-0.2361,-0.2348,-0.2367,-0.2337,-0.2321,-0.2297,-0.2297,-0.2299,-0.226,-0.2237,-0.2229,-0.2221,-0.2239,-0.2233,-0.2317,-0.2317,-0.2317,0,-0.2034,-0.2038,-0.2085,-0.2088,-0.2108,-0.2181,-0.2183,-0.2235,-0.2305,-0.2295,-0.2346,-0.2334,-0.2339,-0.2272,-0.2269,-0.2291,-0.2292,-0.228,-0.2236,-0.2227,-0.2219,-0.2239,-0.2231,-0.2318,-0.2318,-0.2317,-0.2317,0,-0.2073,-0.2058,-0.2092,-0.2091,-0.2113,-0.2144,-0.2169,-0.2188,-0.2243,-0.2268,-0.2233,-0.2259,-0.2235,-0.2249,-0.2259,-0.219,-0.2218,-0.223,-0.2245,-0.2211,-0.2235,-0.2226,-0.2319,-0.2318,-0.2318,-0.2318,0,0,-0.2163,-0.2121,-0.2118,-0.2067,-0.2101,-0.211,-0.2114,-0.2104,-0.2096,-0.2145,-0.2125,-0.2107,-0.2128,-0.2105,-0.2125,-0.2116,-0.2108,-0.2153,-0.2152,-0.2178,-0.2086,-0.2016,-0.2002,-0.2125,-0.2122,-0.212,-0.2148,0,-0.2167,-0.212,-0.2108,-0.2057,-0.2031,-0.2041,-0.2031,-0.2017,-0.2051,-0.2057,-0.2049,-0.2049,-0.2075,-0.2082,-0.2066,-0.2094,-0.2075,-0.2099,-0.2103,-0.2103,-0.2051,-0.1984,-0.1765,-0.1761,-0.214,-0.2139,-0.2138,0,-0.2176,-0.2121,-0.208,-0.1955,-0.1955,-0.1956,-0.1915,-0.1895,-0.1892,-0.1917,-0.1902,-0.1935,-0.1915,-0.1963,-0.1952,-0.1975,-0.1997,-0.2025,-0.2028,-0.1926,-0.2013,-0.1842,-0.1731,-0.2124,-0.2125,-0.2126,-0.2127,0,-0.2164,-0.2071,-0.2027,-0.2008,-0.1935,-0.1909,-0.1873,-0.186,-0.1831,-0.1834,-0.186,-0.1832,-0.1872,-0.1854,-0.1946,-0.1943,-0.1963,-0.1977,-0.1919,-0.1919,-0.1702,-0.1685,-0.191,-0.191,-0.191,-0.191,-0.191,0,-0.2147,-0.2076,-0.202,-0.1997,-0.1905,-0.1869,-0.1807,-0.1775,-0.1764,-0.1757,-0.179,-0.1813,-0.1847,-0.1893,-0.1917,-0.1909,-0.1944,-0.1857,-0.1886,-0.171,-0.1694,-0.1971,-0.1978,-0.1911,-0.1911,-0.1911,-0.191,0,-0.2122,-0.2101,-0.2019,-0.1946,-0.1903,-0.1846,-0.1748,-0.1699,-0.1724,-0.1728,-0.1735,-0.1803,-0.1848,-0.1895,-0.1923,-0.1894,-0.1887,-0.1875,-0.169,-0.1691,-0.1861,-0.1869,-0.1749,-0.1746,-0.1744,-0.1742,-0.174,0,-0.2093,-0.2065,-0.1992,-0.192,-0.1891,-0.1788,-0.1711,-0.1679,-0.1657,-0.1736,-0.1745,-0.181,-0.1833,-0.1848,-0.1782,-0.1748,-0.1858,-0.1545,-0.144,-0.1786,-0.1828,-0.184,-0.1851,-0.1207,-0.1201,-0.1196,-0.1192,0,-0.201,-0.2039,-0.1989,-0.1877,-0.1803,-0.1675,-0.1592,-0.1597,-0.1613,-0.164,-0.1708,-0.1732,-0.1725,-0.1569,-0.153,-0.1482,-0.1517,-0.1439,-0.1825,-0.1279,-0.1274,-0.1318,-0.1345,-0.1148,-0.1153,-0.1156,-0.1158,-0.116,-0.1953,-0.193,-0.1905,-0.177,-0.1698,-0.1609,-0.1529,-0.1513,-0.1502,-0.1585,-0.1641,-0.1596,-0.1516,-0.1299,-0.1233,-0.1134,-0.1229,-0.1131,-0.1146,-0.1166,-0.1094,-0.1084,-0.0913,-0.0916,-0.0918,-0.0921,-0.0923,0,-0.1817,-0.1805,-0.1731,-0.1625,-0.1527,-0.1516,-0.1456,-0.1417,-0.1437,-0.1508,-0.1532,-0.1251,-0.1083,-0.102,-0.0763,-0.07,-0.0693,-0.0674,-0.0651,-0.069,-0.0727,-0.0634,-0.0331,-0.0331,-0.033,-0.0329,0,0,-0.1743,-0.1667,-0.1646,-0.1463,-0.1401,-0.1319,-0.1301,-0.1302,-0.1327,-0.1307,-0.1212,-0.1253,-0.1068,-0.0782,-0.0651,-0.0484,-0.0635,-0.0448,-0.0906,-0.093,-0.0968,-0.0942,-0.0838,0,0,0,0,0]},{"header":{"parameterUnit":"m.s-1","parameterCategory":2,"la1":30.2991,"la2":30.254,"lo1":-89.0895,"lo2":-89.0444,"dy":0.0017,"dx":0.0017,"nx":28,"ny":28,"refTime":"2024-07-07T03:00:00:Z","depth":"2","parameterNumber":3,"parameterNumberName":"V-component_of_CURRENTS"},"data":[0,0,0,0,0,0,0,0,0,0,0,0,0,0,0,0,0,0,0,0,0,0,0,0,0,0,0,0,0,0,0,0,0,0,0,0,0,0,0,0,0,0,0,0,0,0,0,0,0,0,0,0,0,0,0,0,0,0,-0.0007,-0.0005,0,0.0275,0.028,0.0285,0.047,0.0469,0.0469,0.0468,0.0676,0.0682,0.0688,0,0,0,0,0,0,0,0,0,0,0,0,0,-0.0063,-0.0063,-0.0007,-0.0005,-0.0003,0.0275,0.028,0.0286,0.047,0.0469,0.0469,0.0468,0.0674,0.0681,0.0688,0,0,0,0,0,0,0,0,0,0,0,0,0,0.008,-0.0063,-0.0007,0.0109,0.0121,0.0273,0.028,0.0287,0.047,0.0469,0.0468,0.0468,0.0672,0.0681,0.0689,0.0756,0,0,0.0716,0.072,0,0,0,0,0,0,0,0,0.0072,0.0084,0.009,0.0101,0.0115,0.0321,0.0336,0.0434,0.047,0.0356,0.0468,0.0468,0.0539,0.0559,0.064,0.0766,0.0775,0.0717,0.0723,0.0726,0.0729,0,0,0,0,0,0,0,0.0061,0.0075,0.0123,0.0092,0.0107,0.0257,0.0276,0.0359,0.046,0.0366,0.0375,0.0379,0.0548,0.0631,0.0645,0.0778,0.0717,0.0725,0.073,0.0734,0.0963,0.0964,0,0,0,0,0,0,-0.0026,0.0063,0.0113,0.0129,0.0072,0.0256,0.0278,0.027,0.0461,0.0485,0.0379,0.0386,0.0616,0.0635,0.0653,0.0719,0.0726,0.0735,0.074,0.0962,0.0963,0.0964,0,0,0,0,0,0,-0.0028,-0.0024,0.0102,0.0091,0.0114,0.0253,0.0246,0.0275,0.038,0.0469,0.0495,0.0453,0.0616,0.064,0.0742,0.0728,0.0739,0.0747,0.0961,0.0963,0.0964,0.0864,0,0,0,0,0,0,-0.0031,-0.0027,-0.0031,0.0083,0.0111,0.0151,0.0245,0.0281,0.0373,0.0387,0.054,0.0558,0.0618,0.0728,0.0751,0.074,0.0754,0.096,0.0962,0.0963,0.0866,0.0862,0.0858,0,0,0,0,0,-0.0034,-0.0037,-0.0033,-0.0026,0.0089,0.0148,0.0178,0.029,0.0376,0.0394,0.0527,0.0554,0.0752,0.0738,0.0763,0.0755,0.096,0.0961,0.0963,0.0868,0.0863,0.0858,0,0,0,0,0,0,-0.0032,-0.0018,-0.001,-0.0002,0.0037,0.0171,0.0232,0.0303,0.0438,0.0472,0.0586,0.0612,0.0693,0.0748,0.0729,0.0826,0.0852,0.0859,0.0771,0.0767,0.0763,0.0683,0.0761,0,0,0,0,0,-0.0055,-0.0063,-0.0031,-0.002,0.0003,0.0125,0.0182,0.0233,0.0347,0.0412,0.0523,0.0637,0.0722,0.0762,0.0847,0.0911,0.0927,0.0918,0.0913,0.0909,0.0863,0.0855,0.0844,0.097,0.097,0.097,0,0,-0.0045,-0.0041,-0.0039,-0.0023,0.0054,0.0077,0.0165,0.0231,0.0268,0.0407,0.0541,0.0635,0.0741,0.081,0.0847,0.0851,0.0899,0.0911,0.0906,0.0862,0.0855,0.0842,0.0831,0.0971,0.0971,0.097,0,0,-0.0041,-0.003,-0.0041,-0.0026,0.0014,0.0074,0.0081,0.02,0.0272,0.0378,0.0486,0.057,0.0732,0.0779,0.0831,0.0855,0.0884,0.0885,0.0788,0.0782,0.077,0.0759,0.0825,0.082,0.0871,0.0871,0.087,0,-0.0027,-0.0059,-0.0028,-0.0038,-0.0024,0.0062,0.006,0.0146,0.0282,0.0304,0.0393,0.0594,0.0709,0.074,0.0766,0.0839,0.0855,0.0797,0.0769,0.0759,0.0749,0.0818,0.0814,0.0866,0.0867,0.0867,0.0867,0,-0.0035,-0.0069,-0.0055,-0.0064,-0.0045,-0.0028,0.0029,0.0073,0.0183,0.0244,0.0319,0.0481,0.0566,0.0631,0.0728,0.0705,0.0752,0.0769,0.0765,0.0729,0.0808,0.0805,0.0859,0.0861,0.0862,0.0864,0,0,-0.0007,-0.0058,-0.0062,-0.0097,-0.0068,-0.0057,-0.0028,-0.0012,0.0007,0.0123,0.0151,0.0314,0.0368,0.0428,0.0534,0.0551,0.0573,0.0624,0.0626,0.0659,0.0593,0.0675,0.0681,0.0563,0.0561,0.0559,0.0696,0,-0.0025,-0.0087,-0.0099,-0.0138,-0.0162,-0.0134,-0.0118,-0.0103,-0.0028,0.0023,0.0111,0.0205,0.0298,0.0362,0.0375,0.054,0.055,0.0536,0.0648,0.0652,0.0701,0.0674,0.0612,0.0729,0.0694,0.0693,0.0693,0,-0.0049,-0.01,-0.0154,-0.0231,-0.023,-0.023,-0.0238,-0.0222,-0.0189,-0.0129,-0.0106,-0.0002,0.0066,0.017,0.0297,0.0276,0.0403,0.0517,0.0524,0.0613,0.0725,0.0751,0.0727,0.069,0.069,0.069,0.069,0,-0.0073,-0.0149,-0.02,-0.0216,-0.0262,-0.0283,-0.029,-0.0278,-0.0271,-0.0233,-0.0205,-0.0153,-0.0058,0.003,0.028,0.028,0.0438,0.0474,0.0646,0.0658,0.0631,0.0643,0.0505,0.0505,0.0505,0.0505,0.0504,0,-0.0108,-0.0165,-0.0217,-0.0247,-0.0308,-0.0325,-0.0362,-0.0366,-0.0354,-0.0364,-0.0291,-0.0258,-0.0095,0.0033,0.0213,0.0435,0.0374,0.0609,0.067,0.0609,0.0617,0.0588,0.0596,0.051,0.0509,0.0508,0.0507,0,-0.0141,-0.0173,-0.025,-0.0308,-0.0327,-0.0367,-0.0411,-0.0438,-0.0422,-0.0429,-0.0417,-0.0323,-0.0172,0.0014,0.0236,0.0389,0.0586,0.0673,0.0635,0.0687,0.0831,0.0832,0.0858,0.0861,0.0864,0.0867,0.0869,0,-0.0169,-0.0209,-0.0283,-0.0327,-0.0351,-0.0412,-0.0453,-0.0465,-0.0484,-0.0463,-0.0461,-0.0334,-0.0244,0.0108,0.0394,0.068,0.0656,0.0802,0.0776,0.0795,0.0853,0.085,0.0848,0.0743,0.0744,0.0744,0.0745,0,-0.0228,-0.0236,-0.0286,-0.0371,-0.0419,-0.0493,-0.0544,-0.0568,-0.0581,-0.058,-0.0549,-0.0478,-0.0148,0.0144,0.0533,0.0681,0.0747,0.0829,0.0814,0.0666,0.0697,0.0751,0.075,0.0751,0.075,0.075,0.0749,0.0749,-0.0258,-0.0293,-0.0343,-0.0421,-0.0486,-0.0564,-0.0626,-0.0667,-0.0707,-0.0682,-0.059,-0.0374,-0.0072,0.0519,0.0661,0.0829,0.0871,0.0913,0.0905,0.0898,0.0862,0.0896,0.0986,0.0986,0.0987,0.0988,0.0988,0,-0.0307,-0.0341,-0.0407,-0.0496,-0.057,-0.0596,-0.0683,-0.0728,-0.0788,-0.0628,-0.056,-0.011,0.0205,0.0492,0.0783,0.0942,0.0869,0.0904,0.0778,0.0774,0.077,0.0721,0.0811,0.0811,0.081,0.081,0,0,-0.0336,-0.0398,-0.0423,-0.055,-0.0615,-0.072,-0.0776,-0.0822,-0.0719,-0.057,-0.0292,0.0045,0.0411,0.0607,0.0697,0.0751,0.0706,0.0724,0.0859,0.0688,0.0681,0.0779,0.0701,0,0,0,0,0]}],[{"header":{"parameterUnit":"m.s-1","parameterCategory":2,"la1":30.2991,"la2":30.254,"lo1":-89.0895,"lo2":-89.0444,"dy":0.0017,"dx":0.0017,"nx":28,"ny":28,"refTime":"2024-07-07T03:00:00:Z","depth":"4","parameterNumber":2,"parameterNumberName":"U-component_of_CURRENTS"},"data":[0,0,0,0,0,0,0,0,0,0,0,0,0,0,0,0,0,0,0,0,0,0,0,0,0,0,0,0,0,0,0,0,0,0,0,0,0,0,0,0,0,0,0,0,0,0,0,0,0,0,0,0,0,0,0,0,0,0,-0.1123,-0.1124,0,-0.1171,-0.1171,-0.1172,-0.119,-0.119,-0.119,-0.119,-0.125,-0.1251,-0.1253,0,0,0,0,0,0,0,0,0,0,0,0,0,-0.1037,-0.1039,-0.1123,-0.1124,-0.1124,-0.1171,-0.1171,-0.1172,-0.119,-0.119,-0.119,-0.119,-0.1249,-0.1251,-0.1253,0,0,0,0,0,0,0,0,0,0,0,0,0,-0.1077,-0.1039,-0.1123,-0.114,-0.1142,-0.1171,-0.1171,-0.1172,-0.119,-0.119,-0.119,-0.119,-0.1248,-0.1251,-0.1253,-0.1268,0,0,-0.126,-0.1261,0,0,0,0,0,0,0,0,-0.1075,-0.108,-0.1137,-0.1139,-0.1142,-0.1176,-0.1163,-0.1205,-0.119,-0.117,-0.119,-0.119,-0.1227,-0.1231,-0.1238,-0.127,-0.1273,-0.1261,-0.1262,-0.1263,-0.1264,0,0,0,0,0,0,0,-0.1072,-0.1078,-0.114,-0.1138,-0.1141,-0.1142,-0.1148,-0.1171,-0.1197,-0.1172,-0.1174,-0.1181,-0.1228,-0.1235,-0.1239,-0.1274,-0.126,-0.1263,-0.1264,-0.1265,-0.1338,-0.1339,0,0,0,0,0,0,-0.107,-0.1076,-0.1139,-0.1142,-0.1109,-0.1144,-0.115,-0.1163,-0.1196,-0.1202,-0.1181,-0.1182,-0.1231,-0.1236,-0.1241,-0.129,-0.1263,-0.1265,-0.1267,-0.1338,-0.1338,-0.1339,0,0,0,0,0,0,-0.1068,-0.1076,-0.1137,-0.1111,-0.1119,-0.1146,-0.116,-0.1164,-0.1189,-0.1204,-0.1209,-0.1204,-0.1231,-0.1238,-0.1269,-0.1292,-0.1266,-0.1268,-0.1337,-0.1338,-0.1339,-0.1369,0,0,0,0,0,0,-0.1066,-0.1075,-0.1089,-0.1111,-0.112,-0.1165,-0.1161,-0.1165,-0.1193,-0.1195,-0.1225,-0.1229,-0.1232,-0.1265,-0.1271,-0.1294,-0.127,-0.1337,-0.1338,-0.1339,-0.1367,-0.1371,-0.1374,0,0,0,0,0,-0.1063,-0.1079,-0.1089,-0.1097,-0.1137,-0.1166,-0.1172,-0.1189,-0.1195,-0.121,-0.1223,-0.1229,-0.1275,-0.1267,-0.1274,-0.1299,-0.1336,-0.1337,-0.1338,-0.1366,-0.137,-0.1373,0,0,0,0,0,0,-0.1045,-0.1083,-0.1095,-0.1122,-0.1149,-0.117,-0.1186,-0.1201,-0.1224,-0.1229,-0.1239,-0.1245,-0.1278,-0.1283,-0.1275,-0.1321,-0.1306,-0.1308,-0.1324,-0.1328,-0.1331,-0.1339,-0.1272,0,0,0,0,0,-0.1049,-0.1077,-0.1107,-0.1131,-0.1144,-0.117,-0.1186,-0.1202,-0.1223,-0.1234,-0.1252,-0.1269,-0.1286,-0.1303,-0.1316,-0.1349,-0.1345,-0.1367,-0.137,-0.1373,-0.1383,-0.1398,-0.1403,-0.1343,-0.1343,-0.1343,0,0,-0.1045,-0.1075,-0.1088,-0.1131,-0.115,-0.1171,-0.118,-0.1211,-0.1235,-0.1237,-0.1274,-0.1283,-0.1295,-0.1324,-0.134,-0.1335,-0.1384,-0.1374,-0.1377,-0.1386,-0.14,-0.1406,-0.1411,-0.1344,-0.1344,-0.1343,0,0,-0.1051,-0.1082,-0.1103,-0.113,-0.1172,-0.1186,-0.12,-0.1233,-0.1255,-0.129,-0.1292,-0.1314,-0.1347,-0.1357,-0.1366,-0.1397,-0.1396,-0.1405,-0.1436,-0.1451,-0.1456,-0.1461,-0.1444,-0.1447,-0.1411,-0.1411,-0.1411,0,-0.1043,-0.1079,-0.1112,-0.1141,-0.1165,-0.1194,-0.1217,-0.1244,-0.1284,-0.1313,-0.1306,-0.1358,-0.1361,-0.1402,-0.1405,-0.1405,-0.1406,-0.1422,-0.1455,-0.146,-0.1464,-0.1447,-0.145,-0.1413,-0.1413,-0.1412,-0.1412,0,-0.1058,-0.1094,-0.111,-0.1155,-0.1186,-0.1213,-0.1252,-0.129,-0.1317,-0.1343,-0.1397,-0.1401,-0.1433,-0.1436,-0.143,-0.1469,-0.1455,-0.1454,-0.1447,-0.1472,-0.1451,-0.1454,-0.1415,-0.1414,-0.1414,-0.1414,0,0,-0.1016,-0.1101,-0.1106,-0.1142,-0.1199,-0.1226,-0.1276,-0.1331,-0.1372,-0.141,-0.1457,-0.1482,-0.1493,-0.1503,-0.1504,-0.1516,-0.1528,-0.1503,-0.1503,-0.1488,-0.1545,-0.1427,-0.1418,-0.154,-0.1542,-0.1542,-0.1511,0,-0.1014,-0.1068,-0.1114,-0.1168,-0.1199,-0.1257,-0.1304,-0.1364,-0.1406,-0.1455,-0.1488,-0.1519,-0.1518,-0.1527,-0.1547,-0.1532,-0.154,-0.1535,-0.1522,-0.1521,-0.1415,-0.142,-0.1546,-0.1513,-0.1513,-0.1514,-0.1514,0,-0.1007,-0.1052,-0.1101,-0.1198,-0.1216,-0.1254,-0.1343,-0.1389,-0.1468,-0.1502,-0.1553,-0.1569,-0.1599,-0.1582,-0.1598,-0.1599,-0.1579,-0.1564,-0.1563,-0.1448,-0.1408,-0.1487,-0.1519,-0.1518,-0.1518,-0.1518,-0.1517,0,-0.0961,-0.1046,-0.1089,-0.1118,-0.1219,-0.1267,-0.132,-0.1407,-0.1451,-0.1525,-0.1548,-0.1605,-0.1608,-0.1623,-0.1592,-0.1602,-0.1589,-0.1593,-0.1472,-0.1462,-0.1566,-0.1562,-0.1605,-0.1605,-0.1605,-0.1605,-0.1605,0,-0.0937,-0.0975,-0.1078,-0.1102,-0.1171,-0.1252,-0.1322,-0.1388,-0.1463,-0.149,-0.1563,-0.1563,-0.162,-0.1616,-0.1604,-0.1531,-0.1598,-0.1473,-0.145,-0.1575,-0.1572,-0.1566,-0.1562,-0.1604,-0.1604,-0.1604,-0.1604,0,-0.0876,-0.0939,-0.1001,-0.1111,-0.1153,-0.12,-0.1314,-0.1354,-0.1435,-0.1465,-0.1481,-0.1535,-0.1513,-0.1549,-0.1541,-0.151,-0.1472,-0.143,-0.1541,-0.1526,-0.1335,-0.1333,-0.1297,-0.1293,-0.1289,-0.1286,-0.1284,0,-0.0845,-0.087,-0.0992,-0.1032,-0.1084,-0.1169,-0.1221,-0.1326,-0.1352,-0.1413,-0.1402,-0.1416,-0.1432,-0.1325,-0.1382,-0.1361,-0.135,-0.1336,-0.136,-0.1324,-0.1306,-0.1309,-0.1312,-0.1278,-0.1277,-0.1276,-0.1275,0,-0.0779,-0.0828,-0.0875,-0.0969,-0.1032,-0.1097,-0.1171,-0.1177,-0.1261,-0.1339,-0.1269,-0.1252,-0.1221,-0.1218,-0.1213,-0.1202,-0.1355,-0.1298,-0.1306,-0.1328,-0.13,-0.1286,-0.1293,-0.1262,-0.1264,-0.1265,-0.1266,0,-0.0725,-0.0738,-0.0815,-0.0893,-0.0967,-0.1001,-0.1052,-0.1064,-0.1098,-0.1159,-0.1113,-0.1126,-0.1166,-0.113,-0.1119,-0.1107,-0.1103,-0.1091,-0.111,-0.1125,-0.109,-0.103,-0.0883,0,0,0,0,0,-0.0673,-0.0684,-0.0742,-0.0818,-0.089,-0.0939,-0.1011,-0.1055,-0.1117,-0.1026,-0.107,-0.1023,-0.0987,-0.1003,-0.0957,-0.1077,-0.1134,-0.1025,-0.1137,-0.1191,-0.1206,-0.1184,0,0,0,0,0,0,-0.063,-0.0671,-0.0708,-0.0745,-0.0781,-0.0844,-0.0878,-0.0921,-0.0881,-0.0937,-0.0914,-0.0965,-0.0947,-0.0985,-0.0932,-0.0944,-0.0997,-0.105,-0.1047,-0.1183,-0.1197,-0.1208,-0.1191,0,0,0,0,0]},{"header":{"parameterUnit":"m.s-1","parameterCategory":2,"la1":30.2991,"la2":30.254,"lo1":-89.0895,"lo2":-89.0444,"dy":0.0017,"dx":0.0017,"nx":28,"ny":28,"refTime":"2024-07-07T03:00:00:Z","depth":"4","parameterNumber":3,"parameterNumberName":"V-component_of_CURRENTS"},"data":[0,0,0,0,0,0,0,0,0,0,0,0,0,0,0,0,0,0,0,0,0,0,0,0,0,0,0,0,0,0,0,0,0,0,0,0,0,0,0,0,0,0,0,0,0,0,0,0,0,0,0,0,0,0,0,0,0,0,-0.0222,-0.0222,0,-0.0231,-0.0231,-0.0231,-0.0215,-0.0215,-0.0215,-0.0214,-0.0183,-0.0182,-0.0182,0,0,0,0,0,0,0,0,0,0,0,0,0,-0.0158,-0.0159,-0.0222,-0.0222,-0.0223,-0.0231,-0.0231,-0.0231,-0.0215,-0.0215,-0.0215,-0.0214,-0.0183,-0.0183,-0.0182,0,0,0,0,0,0,0,0,0,0,0,0,0,-0.0176,-0.0159,-0.0222,-0.0218,-0.0218,-0.0231,-0.0231,-0.0231,-0.0215,-0.0215,-0.0215,-0.0214,-0.0183,-0.0183,-0.0182,-0.0185,0,0,-0.0179,-0.0179,0,0,0,0,0,0,0,0,-0.0175,-0.0178,-0.0218,-0.0218,-0.0218,-0.0224,-0.0197,-0.0214,-0.0216,-0.0214,-0.0214,-0.0214,-0.0195,-0.0193,-0.0193,-0.0184,-0.0182,-0.0179,-0.0179,-0.0178,-0.0178,0,0,0,0,0,0,0,-0.0174,-0.0177,-0.0223,-0.0219,-0.0219,-0.0204,-0.0206,-0.02,-0.0204,-0.0214,-0.0213,-0.0218,-0.0194,-0.0194,-0.0192,-0.0182,-0.0179,-0.0178,-0.0178,-0.0177,-0.0185,-0.0185,0,0,0,0,0,0,-0.018,-0.0176,-0.0223,-0.0223,-0.0198,-0.0206,-0.0208,-0.022,-0.0205,-0.0203,-0.0219,-0.0218,-0.0195,-0.0193,-0.0191,-0.0192,-0.0178,-0.0177,-0.0177,-0.0184,-0.0185,-0.0186,0,0,0,0,0,0,-0.0179,-0.0184,-0.0222,-0.0201,-0.0206,-0.0208,-0.0221,-0.0221,-0.0223,-0.021,-0.0206,-0.0223,-0.0195,-0.0192,-0.0197,-0.0191,-0.0177,-0.0176,-0.0183,-0.0184,-0.0185,-0.0197,0,0,0,0,0,0,-0.0177,-0.0184,-0.0194,-0.0202,-0.0207,-0.0236,-0.0222,-0.0221,-0.0228,-0.0227,-0.0212,-0.0208,-0.0194,-0.0198,-0.0196,-0.019,-0.0176,-0.0182,-0.0184,-0.0185,-0.0196,-0.0198,-0.02,0,0,0,0,0,-0.0175,-0.0194,-0.0195,-0.02,-0.0221,-0.0236,-0.0237,-0.0235,-0.0229,-0.0234,-0.0229,-0.0209,-0.0204,-0.0198,-0.0195,-0.0189,-0.0182,-0.0183,-0.0185,-0.0195,-0.0198,-0.02,0,0,0,0,0,0,-0.0174,-0.0195,-0.0195,-0.0221,-0.0229,-0.0235,-0.0242,-0.024,-0.0241,-0.0239,-0.0221,-0.0218,-0.0221,-0.021,-0.0204,-0.0197,-0.0188,-0.0189,-0.0197,-0.0199,-0.0202,-0.0175,-0.0175,0,0,0,0,0,-0.018,-0.0198,-0.0211,-0.0232,-0.0237,-0.024,-0.0245,-0.0245,-0.0248,-0.0248,-0.0238,-0.0229,-0.0225,-0.0217,-0.0215,-0.0211,-0.0158,-0.0205,-0.0208,-0.021,-0.0188,-0.01,-0.0091,-0.0191,-0.0191,-0.0191,0,0,-0.0188,-0.02,-0.0212,-0.0232,-0.0238,-0.0251,-0.0241,-0.0255,-0.026,-0.0244,-0.0247,-0.0242,-0.023,-0.0228,-0.0226,-0.0215,-0.0159,-0.0212,-0.0213,-0.0189,-0.0101,-0.009,-0.0081,-0.0192,-0.0192,-0.0191,0,0,-0.0209,-0.0221,-0.0241,-0.0249,-0.0262,-0.0264,-0.027,-0.0277,-0.0273,-0.0283,-0.0269,-0.0254,-0.026,-0.0234,-0.0225,-0.0238,-0.0181,-0.025,-0.0228,-0.0144,-0.0134,-0.0124,-0.0059,-0.0044,-0.0242,-0.0242,-0.0242,0,-0.0215,-0.0243,-0.0248,-0.0264,-0.0272,-0.0271,-0.0287,-0.0286,-0.0292,-0.0279,-0.0289,-0.0259,-0.0254,-0.0219,-0.0229,-0.0238,-0.0189,-0.0216,-0.0143,-0.0132,-0.0122,-0.0057,-0.004,-0.0243,-0.0243,-0.0243,-0.0243,0,-0.0245,-0.0267,-0.0279,-0.0297,-0.0304,-0.0321,-0.032,-0.0319,-0.0316,-0.0303,-0.0277,-0.0262,-0.0234,-0.0238,-0.024,-0.0172,-0.0162,-0.016,-0.0127,-0.0112,-0.0046,-0.0028,-0.0244,-0.0244,-0.0244,-0.0243,0,0,-0.0263,-0.0294,-0.0301,-0.0311,-0.0323,-0.0333,-0.0333,-0.0324,-0.0309,-0.0296,-0.0263,-0.0247,-0.0218,-0.0206,-0.0192,-0.0122,-0.0026,-0.0112,-0.0108,-0.0032,0.0156,0.0111,0.0127,-0.0006,-0.0002,0.0,0.0168,0,-0.0286,-0.0322,-0.033,-0.0358,-0.0373,-0.0364,-0.0361,-0.0345,-0.0328,-0.0296,-0.0243,-0.022,-0.0212,-0.02,-0.0124,-0.0062,0.0025,-0.0072,0.0117,0.0123,0.0095,0.0148,0.0011,0.0182,0.0186,0.0189,0.0192,0,-0.0312,-0.0332,-0.0366,-0.0379,-0.0383,-0.0396,-0.0376,-0.0372,-0.0316,-0.0298,-0.0237,-0.0205,-0.0117,-0.0115,0.006,-0.0002,0.0086,0.0148,0.0156,0.014,0.0114,0.0166,0.0226,0.0223,0.0221,0.0218,0.0216,0,-0.032,-0.0356,-0.0383,-0.0392,-0.0405,-0.0407,-0.0406,-0.0368,-0.0356,-0.029,-0.0271,-0.0158,-0.0115,0.0025,0.0132,0.0109,0.0332,0.0316,0.0375,0.0372,0.0368,0.0356,0.0482,0.0482,0.0482,0.0481,0.0481,0,-0.0338,-0.0362,-0.0392,-0.0408,-0.0427,-0.0422,-0.042,-0.0401,-0.036,-0.0335,-0.0269,-0.0224,-0.0075,0.0049,0.0166,0.0323,0.037,0.0406,0.0426,0.0352,0.0337,0.0381,0.0367,0.0488,0.0486,0.0485,0.0484,0,-0.0348,-0.037,-0.0404,-0.0428,-0.0436,-0.0447,-0.0451,-0.0439,-0.0404,-0.0367,-0.035,-0.0251,-0.0095,0.0061,0.028,0.0346,0.0509,0.056,0.0472,0.0478,0.0487,0.047,0.0653,0.0653,0.0653,0.0653,0.0653,0,-0.036,-0.038,-0.0423,-0.0442,-0.046,-0.0475,-0.0479,-0.0462,-0.0453,-0.0384,-0.0366,-0.0228,-0.0144,0.0147,0.0294,0.0539,0.0558,0.0632,0.0568,0.0511,0.0512,0.0495,0.0478,0.0653,0.0653,0.0653,0.0653,0,-0.0379,-0.0399,-0.0426,-0.0462,-0.0486,-0.0505,-0.0515,-0.0509,-0.0475,-0.0453,-0.0352,-0.022,-0.0047,0.0147,0.0334,0.0501,0.0573,0.0634,0.0634,0.0575,0.0514,0.0511,0.0494,0.0654,0.0654,0.0654,0.0654,0,-0.0393,-0.0417,-0.0451,-0.0478,-0.0509,-0.0521,-0.0523,-0.0497,-0.0478,-0.0406,-0.0371,-0.0191,-0.009,0.0129,0.0302,0.0458,0.0483,0.0505,0.0512,0.0513,0.0399,0.0297,0.0416,0,0,0,0,0,-0.04,-0.0426,-0.046,-0.0492,-0.0519,-0.0534,-0.0541,-0.0534,-0.0508,-0.0435,-0.0399,-0.0233,0.0007,0.0105,0.0261,0.0289,0.0497,0.0469,0.0523,0.0656,0.0655,0.0538,0,0,0,0,0,0,-0.0405,-0.0443,-0.0462,-0.0495,-0.0514,-0.0542,-0.0543,-0.0524,-0.0476,-0.0431,-0.029,-0.0231,0.0017,-0.0071,0.0255,0.0298,0.0342,0.0584,0.0586,0.0656,0.0656,0.0655,0.0535,0,0,0,0,0]}]]